Regional Weather Roundup
Issued by NWS Huntsville, AL

Home | Current Version | Previous Version | Text Only | Print | Product List | Glossary On
Versions: 1 2 3 4 5 6 7 8 9 10 11 12 13 14 15 16 17 18 19 20 21 22 23 24 25 26 27 28 29 30 31 32 33 34 35 36 37 38 39 40 41 42 43 44 45 46 47 48 49 50
000
ASUS44 KHUN 030210
RWRHUN

WEATHER ROUNDUP FOR THE TENNESSEE VALLEY
NATIONAL WEATHER SERVICE HUNTSVILLE AL
900 PM CDT WED SEP 02 2015

ALZ001>004-030300-
NORTHWEST ALABAMA

CITY           SKY/WX    TMP DP  RH WIND       PRES   REMARKS
COURTLAND HCN    N/A     77 N/A N/A CALM        N/A
BANKHEAD NF      N/A     74  74 100 CALM        N/A
SHOALS AIRPORT CLOUDY    76  72  87 CALM      30.03R
SHOALS TVA RES   N/A     75 N/A N/A MISG        N/A
$$

ALZ005>007-016-030300-
NORTH CENTRAL ALABAMA

CITY           SKY/WX    TMP DP  RH WIND       PRES   REMARKS
CULLMAN AG STN   N/A     73 N/A N/A CALM        N/A
DECATUR AP     CLOUDY    75  74  96 NE3       30.03R
HUNTSVILLE AP  CLOUDY    79  74  84 CALM      30.02R
HUN NWS/UAH      N/A     80  70  71 CALM        N/A
MERIDIANVILLE  CLOUDY    77  70  78 CALM      30.03R
VINEMONT AP    FAIR      72  72 100 CALM      30.06R FOG
$$

ALZ008>010-030300-
NORTHEAST ALABAMA

CITY           SKY/WX    TMP DP  RH WIND       PRES   REMARKS
ALBERTVILLE    MOCLDY    73  73 100 CALM      30.04R
FORT PAYNE     CLOUDY    75  70  83 CALM      30.04R
SCOTTSBORO AP  CLOUDY    75  73  94 CALM      30.03R
SCOTTSBORO HCN   N/A     75 N/A N/A MISG        N/A
VALLEY HEAD      N/A     75 N/A N/A MISG        N/A
$$

TNZ076-096-097-030300-
SOUTHEASTERN MIDDLE TENNESSEE

CITY           SKY/WX    TMP DP  RH WIND       PRES   REMARKS
TULLAHOMA      CLEAR     75  70  83 CALM      30.07R
WINCHESTER     CLEAR     75  73  94 CALM      30.06R
$$

...SURROUNDING SITES...

CITY           SKY/WX    TMP DP  RH WIND       PRES   REMARKS
ATLANTA        MOCLDY    82  68  62 CALM      30.04R
ANNISTON       MOCLDY    75  71  87 CALM      30.03R
BIRMINGHAM     CLOUDY    80  74  81 CALM      30.05R
CHATTANOOGA    CLOUDY    80  71  74 CALM      30.03R
DALTON         CLOUDY    75  75 100 CALM      30.03R
GADSDEN        MOCLDY    75  72  88 CALM      30.02R
GOLDEN TRNGL   CLOUDY    79  70  73 CALM      30.01R
HALEYVILLE     FAIR      74  74 100 CALM      30.07R
JACKSON TN     CLEAR     75  72  90 S3        30.00S
MEMPHIS        CLEAR     79  71  76 S3        30.01R
NASHVILLE      CLOUDY    84  66  54 CALM      30.02R
OXFORD MS      FAIR      73  72  94 CALM      30.03R
ROME           CLOUDY    79  72  79 CALM      30.02R
SAVANNAH       CLEAR     73  32  21 CALM      30.02R
TUPELO         MOCLDY    77  74  90 CALM      30.01R
TUSCALOOSA     CLOUDY    79  75  87 CALM      30.00R
$$

...GULF COAST WEATHER...

CITY           SKY/WX    TMP DP  RH WIND       PRES   REMARKS
GULFPORT       CLOUDY    80  74  81 CALM      30.00R
PASCAGOULA     CLOUDY    77  75  93 CALM      30.00R
MOBILE         CLOUDY    79  75  87 CALM      30.01R
GULF SHORES    MOCLDY    80  76  86 W3        30.00R
DESTIN         MOCLDY    85  75  72 VRB3      30.00R HX  93
APPALACHICOLA  MOCLDY    80  74  81 W6        30.00R
$$



USA.gov is the U.S. government's official web portal to all federal, state and local government web resources and services.